Regional Weather Roundup
Issued by NWS

Home | Current Version | Previous Version | Text Only | Print | Product List | Glossary Off
Versions: 1 2 3 4 5 6 7 8 9 10 11 12 13 14 15 16 17 18 19 20 21 22 23 24 25 26 27 28 29 30 31 32 33 34 35 36 37 38 39 40 41 42 43 44 45 46 47 48 49 50

000
ASUS43 KLSX 021610
RWRMO

WEATHER SUMMARY FOR MISSOURI
NATIONAL WEATHER SERVICE SPRINGFIELD MO
1100 AM CDT MON MAY 02 2016

NOTE: "FAIR" INDICATES FEW OR NO CLOUDS BELOW 12,000 FEET WITH NO
       SIGNIFICANT WEATHER AND/OR OBSTRUCTIONS TO VISIBILITY.
       CURRENT SKY AND/OR WEATHER CONDITIONS ARE NOT AVAILABLE FOR
       CHILLICOTHE AND FARMINGTON.

MOZ001>031-035>038-043-044-053-054-021700-
...NORTHERN AND WESTERN MISSOURI...

CITY           SKY/WX    TMP DP  RH WIND       PRES   REMARKS
KANSAS CTY INT CLOUDY    52  45  77 N6        30.12S
KANSAS C DTWN  CLOUDY    53  45  74 N6        30.12R
LEE`S SUMMIT   CLOUDY    52  45  77 NW8       30.11S
ST JOSEPH      CLOUDY    53  46  77 N9        30.12S
CHILLICOTHE      N/A     54  48  80 VRB5      30.11F
KIRKSVILLE     CLOUDY    54  46  74 NE8       30.10S

$$
MOZ066>068-077>081-088>096-101>105-021700-
...SOUTHWEST MISSOURI...

CITY           SKY/WX    TMP DP  RH WIND       PRES   REMARKS
SPRINGFIELD    CLOUDY    54  44  69 NW8       30.09S
JOPLIN         CLOUDY    52  45  77 N8        30.13R
BRANSON        CLOUDY    54  46  76 NW5       30.10S

$$
MOZ032>034-039>042-045>050-055>058-069>072-021700-
...CENTRAL MISSOURI...

CITY           SKY/WX    TMP DP  RH WIND       PRES   REMARKS
COLUMBIA       CLOUDY    54  46  74 CALM      30.09R
JEFFERSON CITY CLOUDY    54  45  71 NW5       30.09S
ROLLA          CLOUDY    52  45  77 NW7       30.06R
SEDALIA        CLOUDY    53  46  77 NW6       30.11R
WARRENSBURG    CLOUDY    52  45  76 NW6       30.11R
OSAGE BEACH    CLOUDY    54  39  58 NW5       30.10S

$$
MOZ051-052-059>065-021700-
...EAST CENTRAL MISSOURI...

CITY           SKY/WX    TMP DP  RH WIND       PRES   REMARKS
ST LOUIS INTL  CLOUDY    55  47  74 NW6       30.06S
SPIRIT OF STL  CLOUDY    54  48  80 NW5       30.06S
ST CHARLES     CLOUDY    54  48  80 W3        30.06R

$$
MOZ072>076-082>087-097>100-106>115-021700-
...SOUTH CENTRAL AND SOUTHEAST MISSOURI...

CITY           SKY/WX    TMP DP  RH WIND       PRES   REMARKS
CAPE GIRARDEAU CLOUDY    61  48  62 VRB3      30.04S
POPLAR BLUFF   CLOUDY    62  50  64 N6        30.05S
WEST PLAINS    MOSUNNY   61  47  59 NW8       30.06F

$$




USA.gov is the U.S. government's official web portal to all federal, state and local government web resources and services.